Track STARLINK-2116 now! 10-day predictions STARLINK-2116 is classified as:
1 47724U 21017C 21110.91667824 .00004468 00000-0 36213-4 0 9994 2 47724 53.0476 307.5030 0001118 86.6593 36.7025 15.73210022 8124